Location: Argonnex
(45.9500°N, 6.1333°E)
Time: 09:36:25
(UTC+00:00)

CZ-6A DEB - Pass Details

Date: 27 February 2024
Orbit: 827 x 907 km, 98.8° (Epoch: 12 April)

Event Time Altitude Azimuth Distance (km) Brightness Sun altitude
Rises 04:18:27 0° 28° (NNE) 3,435 ? -21.7°
Reaches altitude 10° 04:21:39 10° 47° (NE) 2,479 ? -21.1°
Maximum altitude 04:25:19 18° 90° (E) 1,949 ? -20.5°
Drops below altitude 10° 04:28:56 10° 132° (SE) 2,440 ? -19.9°
Sets 04:32:03 0° 151° (SSE) 3,361 ? -19.4°
